Terug naar catalogus

COSMOS 1691 DEB

ActiefPO
NORAD 16266·DEBRIS·🇷🇺 Russia

Gelanceerd Oct 9, 1985 vanaf Plesetsk Cosmodrome

Loading…

Volgende Passages (komende 24 uur)

TLE

VersSource: Space-Track

Epoch: Sep 14, 2026, 06:45 UTC

1 16266U 85094K   26257.28134031  .00000262  00000-0  13236-2 0  9998
2 16266  82.6047 189.2189 0008312  96.7714  57.1863 12.66762124888760

Volg COSMOS 1691 DEB in realtime met AllMySat

Download on the App Store